Regional Weather Roundup
Issued by NWS Midland/Odessa, TX

Skip options and go directly to product.
Home | Oldest Version | Previous Version | Current Version | All | Graphics & Text | Save Text | Print | Product List | Glossary On

Skip product version selection by date and time.   
685
ASUS44 KMAF 301401
RWRMAF
MIDLAND AREA WEATHER ROUNDUP
NATIONAL WEATHER SERVICE MIDLAND TX
800 AM CST FRI JAN 30 2015

...IN SOUTHWEST TEXAS AND SOUTHEAST NEW MEXICO...

CITY           SKY/WX    TMP DP  RH WIND       PRES   REMARKS
ALPINE         CLOUDY    39  28  64 NE8       30.40S WCI  34
ANDREWS        CLOUDY    39  29  68 E10       30.41S WCI  32
ARTESIA        CLOUDY    41  34  75 S5        30.41R WCI  38
BIG SPRING     CLOUDY    43  29  57 NE13      30.44S WCI  37
CARLSBAD       LGT RAIN  42  31  64 E8        30.39R WCI  37
DRYDEN           N/A     49  32  52 NE8       30.37R
FORT STOCKTON  CLOUDY    44  33  65 NE5       30.39R
GUAD PASS      FRZ RAIN  31  27  85 NE44      30.25R WCI  14
HOBBS          LGTSLEET  37  28  70 NE10      30.41S WCI  30
MARFA          CLOUDY    37  28  70 NE14G21   30.31F WCI  29
MIDLAND AIRPK  CLOUDY    43  29  58 E10       30.41S WCI  37
MIDLAND INTL   CLOUDY    42  28  57 NE13      30.40R WCI  35
ODESSA         CLOUDY    41  28  60 E12       30.41R WCI  34
PECOS          DRIZZLE   42  37  82 NE9       30.39F WCI  37
PRESIDIO       CLOUDY    52  35  51 NE14G24   30.25S
SEMINOLE       CLOUDY    40  27  59 E10       30.43R WCI  33
SNYDER         CLOUDY   N/A N/A N/A NE10      30.45R
WINK           LGT RAIN  44  29  55 NE6       30.40R
$$
...OTHER STATIONS IN TEXAS...

CITY           SKY/WX    TMP DP  RH WIND       PRES   REMARKS
ABILENE        CLOUDY    42  29  59 NE7       30.47R WCI  38
AMARILLO       CLOUDY    36  27  69 SE7       30.44S WCI  30
AUSTIN         CLOUDY    48  34  58 NE16      30.43R
BROWNSVILLE    FOG       61  60  97 CALM      30.29R VSB 1/4
CORPUS CHRISTI MOCLDY    55  43  63 NE16      30.35R
DALLAS FTW     MOCLDY    41  31  67 NE12      30.48R WCI  34
DEL RIO        CLOUDY    55  37  50 N3        30.36R
EL PASO        CLOUDY    41  37  86 NE10      30.26S WCI  35
HOUSTON INT    CLOUDY    50  38  63 NE10      30.40R
LUBBOCK        CLOUDY    38  27  64 E7        30.44R WCI  33
SAN ANGELO     CLOUDY    44  33  65 NE10      30.42R WCI  39
SAN ANTONIO    CLOUDY    51  33  50 NE13G20   30.39S
WACO           MOCLDY    44  33  65 N8        30.47R WCI  39
WICHITA FALLS  NOT AVBL
$$
...OTHER LOCATIONS IN NEW MEXICO...

CITY           SKY/WX    TMP DP  RH WIND       PRES   REMARKS
ALAMAGORDO     LGT RAIN  39  39 100 NW7       30.28S WCI  34
ALBUQUERQUE    LGT SNOW  34  29  82 E17       30.30R WCI  23
CANNON AFB     CLOUDY    37  28  70 SE5       30.39F WCI  33
CLOVIS         CLOUDY    37  27  65 SE6       30.40F WCI  33
HOLLOMAN AFB   LGT RAIN  40  40  99 SW6       30.26S WCI  36
ROSWELL        CLOUDY    42  30  62 SE3       30.39R
RUIDOSO        CLOUDY    28  27  93 SE8       30.34S WCI  20
SANTA FE       LGT SNOW  30  24  78 S7        30.30F WCI  23
TRUTH OR CONSE LGT RAIN  39  37  92 N9        30.24S WCI  33
TUCUMCARI      CLOUDY    39  31  72 S7        30.38F WCI  34
$$

USA.gov is the U.S. government's official web portal to all federal, state and local government web resources and services.